This is the latest recevied weather packets stored in our database for station/object K6CQU-13. If no packets are shown the sender has not sent any weather packets the latest 10 day(s).
| Time | Temp. | Humidity | Pressure | Rain* | Wind** | Luminosity | Snow |
|---|---|---|---|---|---|---|---|
| 1777752017 | 21.67° C | 54% | 1012.4 hPa | 0 mm | - | 879 W/m² | - |
| 1777751717 | 21.67° C | 54% | 1012.5 hPa | 0 mm | - | 851 W/m² | - |
| 1777751417 | 21.67° C | 56% | 1012.5 hPa | 0 mm | - | 801 W/m² | - |
| 1777750517 | 20.56° C | 58% | 1012.5 hPa | 0 mm | - | 657 W/m² | - |
| 1777750217 | 20.56° C | 59% | 1012.6 hPa | 0 mm | - | 757 W/m² | - |
| 1777749617 | 20° C | 60% | 1012.6 hPa | 0 mm | - | 740 W/m² | - |
| 1777749317 | 20° C | 62% | 1012.6 hPa | 0 mm | - | 827 W/m² | - |
| 1777749017 | 20° C | 61% | 1012.7 hPa | 0 mm | - | 710 W/m² | - |
| 1777748717 | 20° C | 63% | 1012.7 hPa | 0 mm | - | 781 W/m² | - |
| 1777748117 | 18.89° C | 65% | 1012.8 hPa | 0 mm | - | 843 W/m² | - |
| 1777747817 | 18.89° C | 65% | 1012.8 hPa | 0 mm | - | 325 W/m² | - |
| 1777746917 | 18.33° C | 66% | 1012.8 hPa | 0 mm | - | 379 W/m² | - |
| 1777746617 | 18.33° C | 66% | 1012.8 hPa | 0 mm | - | 364 W/m² | - |
| 1777746317 | 18.33° C | 67% | 1012.9 hPa | 0 mm | - | 331 W/m² | - |
| 1777746017 | 17.78° C | 67% | 1012.9 hPa | 0 mm | - | 299 W/m² | - |
| 1777745717 | 17.78° C | 68% | 1012.9 hPa | 0 mm | - | 262 W/m² | - |
| 1777745417 | 17.78° C | 68% | 1012.9 hPa | 0 mm | - | 255 W/m² | - |
| 1777745117 | 17.22° C | 69% | 1012.9 hPa | 0 mm | - | 287 W/m² | - |
| 1777744817 | 17.22° C | 69% | 1012.9 hPa | 0 mm | - | 361 W/m² | - |
| 1777744517 | 17.22° C | 70% | 1012.8 hPa | 0 mm | - | 359 W/m² | - |
| 1777743317 | 17.22° C | 70% | 1012.7 hPa | 0 mm | - | 163 W/m² | - |
| 1777743017 | 17.22° C | 69% | 1012.7 hPa | 0 mm | - | 158 W/m² | - |
| 1777742717 | 17.22° C | 69% | 1012.7 hPa | 0 mm | - | 159 W/m² | - |
| 1777742117 | 17.22° C | 68% | 1012.6 hPa | 0 mm | - | 179 W/m² | - |
| 1777741817 | 17.78° C | 67% | 1012.5 hPa | 0 mm | - | 217 W/m² | - |
* Rain latest hour (hover to see other rain measurements)
** Current wind speed in m/s (hover to see current wind gust speed)